Location: Muenchen
(48.1800°N, 11.5800°E)
Time: 07:17:37
(UTC+02:00)

Tiros 1 - Visible Passes

Search period start: 25 May 2016 00:00
Search period end: 04 June 2016 00:00
Orbit: 631 x 665 km, 48.4° (Epoch: 24 May)

Date Brightness Start Highest point End Pass type
(mag) Time Alt. Az. Time Alt. Az. Time Alt. Az.
25 May 7.7 01:02:34 10° W 01:06:22 39° SW 01:06:22 39° SW visible
25 May 7.2 22:04:24 10° W 22:09:07 86° N 22:13:52 10° E visible
25 May 7.1 23:46:39 10° W 23:51:20 67° SSW 23:53:20 34° SE visible
26 May 9.0 01:29:16 10° W 01:30:58 18° WSW 01:30:58 18° WSW visible
26 May 7.1 22:30:48 10° W 22:35:31 88° S 22:40:17 10° E visible
27 May 7.5 00:13:04 10° W 00:17:33 43° SSW 00:17:59 42° SSW visible
27 May 7.1 22:57:10 10° W 23:01:51 69° SSW 23:05:03 20° ESE visible
28 May 8.5 00:39:44 10° W 00:42:42 24° SW 00:42:42 24° SW visible
28 May 7.2 21:41:18 10° W 21:46:01 89° S 21:50:46 10° E visible
28 May 7.6 23:23:35 10° W 23:28:04 45° SSW 23:29:49 31° SSE visible
29 May 9.5 01:07:17 10° WSW 01:07:28 10° WSW 01:07:28 10° WSW visible
29 May 7.2 22:07:41 10° W 22:12:21 71° SSW 22:16:58 11° ESE visible
29 May 8.3 23:50:13 10° W 23:54:08 26° SW 23:54:37 26° SSW visible
30 May 7.6 22:34:05 10° W 22:38:36 47° SSW 22:41:48 18° SE visible
31 May 9.2 00:17:36 10° WSW 00:19:28 14° SW 00:19:28 14° SW visible
31 May 8.3 23:00:41 10° W 23:04:40 28° SW 23:06:42 20° S visible
01 Jun 7.6 21:44:36 10° W 21:49:07 49° SSW 21:53:40 10° SE visible
01 Jun 9.1 23:27:56 10° WSW 23:30:34 15° SW 23:31:38 14° SSW visible
02 Jun 8.4 22:11:10 10° W 22:15:12 29° SW 22:18:57 12° SSE visible
03 Jun 9.2 22:38:19 10° W 22:41:07 16° SW 22:43:56 10° S visible
